User: anonymous   Login
Location: Ammerl�gen
(47.2167°N, 9.6000°E)
Time: 15:22:10
(UTC+00:00)
Language:

RS-15 - Orbit

View from above orbital plane
View from above orbital plane
View from above satellite
View from above satellite

Ground track
Ground track

The orbit data is extracted from the following two-line orbital elements,

1 23439U 94085A   22336.90809644 -.00000039  00000-0  10000-3 0  9990
2 23439  64.8134 233.1497 0167033 243.9264 114.4383 11.27573090150485
Epoch (UTC): 02 December 2022 21:47:39
Eccentricity: 0.0167033
inclination: 64.8134°
perigee height: 1882 km
apogee height: 2162 km
right ascension of ascending node: 233.1497°
argument of perigee: 243.9264°
revolutions per day: 11.27573090
mean anomaly at epoch: 114.4383°
orbit number at epoch: 15048

The dashed part of the orbit path shows where the satellite is in the earth's shadow,  

DLR